Weather History for Pagosa Springs, CO

Change the Weather History Date:

Saturday, August 30, 2014

  Actual Average (KDRO) Record (KDRO)
Temperature  
Mean Temperature 60 °F 64 °F  
Max Temperature 78 °F 80 °F 91 °F (1990)
Min Temperature 43 °F 48 °F 39 °F (1974)
Degree Days  
Heating Degree Days 4 2  
Month to date heating degree days 15  
Since 1 June heating degree days 140  
Since 1 July heating degree days 25  
Cooling Degree Days 0 1  
Month to date cooling degree days 84  
Year to date cooling degree days 235  
Since 1 June cooling degree days 234  
Growing Degree Days 10 (Base 50)    
Moisture  
Dew Point 33 °F    
Average Humidity 40    
Maximum Humidity 75    
Minimum Humidity 13    
Precipitation  
Precipitation 0.00 in 0.09 in 0.59 in (2008)
Month to date precipitation 2.11  
Year to date precipitation 9.90  
Sea Level Pressure  
Sea Level Pressure 30.27 in    
Wind  
Wind Speed 2 mph (WSW)    
Max Wind Speed 15 mph    
Max Gust Speed 22 mph    
Visibility 10 miles    
Events Thunderstorm    
T = Trace of Precipitation, MM = Missing Value Source: NWS Daily Summary

Daily Weather History Graph

Daily Weather History Graph

Search for Another Location

Airport:

Trip Planner

Search our weather history database for the weather conditions in past years. The results will help you decide how hot, cold, wet, or windy it might be!

Date:

Astronomy

Aug. 30, 2014 Rise Set
Actual Time 6:37 AM MDT 7:39 PM MDT
Civil Twilight 6:10 AM MDT 8:06 PM MDT
Nautical Twilight 5:38 AM MDT 8:38 PM MDT
Astronomical Twilight 5:05 AM MDT 9:11 PM MDT
Moon 11:20 AM MDT (8/30) 10:23 PM MDT (8/30)
Length of Visible Light 13h 56m
Length of Day
13h 02m
Waxing Crescent, 23% of the Moon is Illuminated
Aug 30
Waxing Crescent
Sep 2
First Quarter
Sep 8
Full
Sep 15
Last Quarter
Sep 24
New

Hourly Weather History & Observations

Time (MDT) Temp. Dew Point Humidity Pressure Visibility Wind Dir Wind Speed Gust Speed Precip Events Conditions
12:15 AM 53.8 °F 36.5 °F 52% 30.30 in 10.0 mi Calm Calm - N/A   Clear
12:35 AM 53.1 °F 36.7 °F 54% 30.29 in 10.0 mi Calm Calm - N/A   Clear
12:55 AM 52.7 °F 37.0 °F 55% 30.29 in 10.0 mi Calm Calm - N/A   Clear
1:15 AM 56.1 °F 35.8 °F 46% 30.30 in 10.0 mi Calm Calm - N/A   Clear
1:35 AM 53.8 °F 36.7 °F 52% 30.30 in 10.0 mi Calm Calm - N/A   Clear
1:55 AM 54.0 °F 36.9 °F 52% 30.29 in 10.0 mi Calm Calm - N/A   Clear
2:15 AM 55.4 °F 36.7 °F 49% 30.29 in 10.0 mi Calm Calm - N/A   Clear
2:35 AM 49.8 °F 38.1 °F 64% 30.29 in 10.0 mi Calm Calm - N/A   Clear
2:55 AM 48.9 °F 37.4 °F 64% 30.29 in 10.0 mi Calm Calm - N/A   Clear
3:15 AM 50.4 °F 36.5 °F 59% 30.29 in 10.0 mi Calm Calm - N/A   Clear
3:35 AM 48.7 °F 37.6 °F 65% 30.29 in 10.0 mi Calm Calm - N/A   Clear
3:55 AM 48.9 °F 36.7 °F 63% 30.29 in 10.0 mi Calm Calm - N/A   Clear
4:15 AM 47.7 °F 36.7 °F 66% 30.29 in 10.0 mi Calm Calm - N/A   Clear
4:35 AM 47.7 °F 37.6 °F 68% 30.29 in 10.0 mi Calm Calm - N/A   Clear
4:55 AM 46.2 °F 36.9 °F 70% 30.30 in 10.0 mi Calm Calm - N/A   Clear
5:15 AM 45.1 °F 36.7 °F 72% 30.30 in 10.0 mi Calm Calm - N/A   Clear
5:35 AM 45.9 °F 36.5 °F 70% 30.31 in 10.0 mi Calm Calm - N/A   Clear
5:55 AM 44.4 °F 36.1 °F 73% 30.31 in 10.0 mi Calm Calm - N/A   Clear
6:15 AM 43.2 °F 35.6 °F 75% 30.32 in 10.0 mi Calm Calm - N/A   Clear
6:35 AM 45.0 °F 35.6 °F 70% 30.32 in 10.0 mi Calm Calm - N/A   Clear
6:55 AM 44.8 °F 37.0 °F 74% 30.32 in 10.0 mi Calm Calm - N/A   Clear
7:15 AM 48.6 °F 36.9 °F 64% 30.33 in 10.0 mi Calm Calm - N/A   Clear
7:35 AM 49.8 °F 37.0 °F 61% 30.34 in 10.0 mi Calm Calm - N/A   Clear
7:55 AM 53.4 °F 37.9 °F 56% 30.34 in 10.0 mi Calm Calm - N/A   Clear
8:15 AM 55.9 °F 38.1 °F 51% 30.34 in 10.0 mi Calm Calm - N/A   Clear
8:55 AM 59.4 °F 38.1 °F 45% 30.33 in 10.0 mi Calm Calm - N/A   Clear
9:15 AM 62.8 °F 38.5 °F 41% 30.33 in 10.0 mi Calm Calm - N/A   Clear
9:35 AM 64.9 °F 37.2 °F 36% 30.34 in 10.0 mi Calm Calm - N/A   Clear
9:55 AM 65.7 °F 34.7 °F 32% 30.33 in 10.0 mi SSE 4.6 mph - N/A   Clear
10:15 AM 66.2 °F 33.6 °F 30% 30.33 in 10.0 mi Calm Calm - N/A Thunderstorm Clear
10:35 AM 67.3 °F 33.1 °F 28% 30.33 in 10.0 mi SSW 5.8 mph - N/A   Clear
10:55 AM 67.5 °F 34.0 °F 29% 30.33 in 10.0 mi Calm Calm - N/A   Clear
11:15 AM 69.1 °F 34.2 °F 28% 30.33 in 10.0 mi Calm Calm - N/A   Clear
11:35 AM 70.0 °F 33.8 °F 26% 30.32 in 10.0 mi SSW 3.5 mph - N/A   Clear
11:55 AM 71.2 °F 33.8 °F 25% 30.31 in 10.0 mi WSW 4.6 mph - N/A   Clear
12:55 PM 75.0 °F 29.5 °F 19% 30.29 in 10.0 mi South 9.2 mph - N/A   Clear
1:15 PM 75.2 °F 28.8 °F 18% 30.28 in 10.0 mi WSW 10.4 mph 18.4 mph N/A   Clear
1:35 PM 76.3 °F 28.2 °F 17% 30.27 in 10.0 mi SSW 10.4 mph - N/A   Scattered Clouds
1:55 PM 76.6 °F 28.8 °F 17% 30.26 in 10.0 mi SW 8.1 mph 16.1 mph N/A   Scattered Clouds
2:15 PM 77.2 °F 27.0 °F 16% 30.26 in 10.0 mi SW 6.9 mph - N/A   Clear
2:35 PM 78.1 °F 28.0 °F 16% 30.24 in 10.0 mi SW 9.2 mph 17.3 mph N/A   Clear
2:55 PM 77.2 °F 24.3 °F 14% 30.24 in 10.0 mi SW 11.5 mph 18.4 mph N/A   Scattered Clouds
3:15 PM 78.1 °F 22.6 °F 13% 30.23 in 10.0 mi SW 10.4 mph 17.3 mph N/A   Scattered Clouds
3:35 PM 76.6 °F 28.6 °F 17% 30.22 in 10.0 mi NW 15.0 mph 21.9 mph N/A Thunderstorm Thunderstorm
3:55 PM 75.9 °F 31.3 °F 19% 30.22 in 10.0 mi NNW 10.4 mph 18.4 mph N/A   Mostly Cloudy
4:15 PM 75.4 °F 30.2 °F 19% 30.22 in 10.0 mi NW 6.9 mph - N/A   Scattered Clouds
4:35 PM 76.1 °F 30.6 °F 19% 30.22 in 10.0 mi West 9.2 mph - N/A   Clear
4:55 PM 75.2 °F 30.9 °F 20% 30.22 in 10.0 mi West 4.6 mph - N/A   Clear
5:15 PM 75.2 °F 31.3 °F 20% 30.21 in 10.0 mi NW 4.6 mph - N/A   Clear
5:35 PM 74.7 °F 31.3 °F 20% 30.21 in 10.0 mi Calm Calm - N/A   Clear
5:55 PM 74.7 °F 31.8 °F 21% 30.21 in 10.0 mi Calm Calm - N/A   Clear
6:15 PM 75.2 °F 30.2 °F 19% 30.21 in 10.0 mi SW 4.6 mph - N/A   Clear
6:35 PM 75.6 °F 30.7 °F 19% 30.21 in 10.0 mi WSW 4.6 mph - N/A   Clear
6:55 PM 75.0 °F 26.4 °F 17% 30.20 in 10.0 mi WSW 10.4 mph - N/A   Clear
7:35 PM 73.0 °F 27.3 °F 18% 30.19 in 10.0 mi Calm Calm - N/A   Clear
7:55 PM 73.2 °F 26.8 °F 18% 30.20 in 10.0 mi Calm Calm - N/A   Clear
8:15 PM 66.7 °F 30.6 °F 26% 30.20 in 10.0 mi Calm Calm - N/A   Clear
8:35 PM 64.6 °F 32.4 °F 30% 30.21 in 10.0 mi Calm Calm - N/A   Clear
8:55 PM 61.3 °F 32.2 °F 33% 30.21 in 10.0 mi Calm Calm - N/A   Clear
9:15 PM 60.8 °F 32.0 °F 34% 30.21 in 10.0 mi Calm Calm - N/A   Clear
9:35 PM 65.3 °F 30.4 °F 27% 30.21 in 10.0 mi Calm Calm - N/A   Clear
9:55 PM 59.5 °F 35.8 °F 41% 30.22 in 10.0 mi Calm Calm - N/A   Clear
10:15 PM 57.6 °F 34.5 °F 42% 30.21 in 10.0 mi Calm Calm - N/A   Clear
10:35 PM 55.6 °F 33.3 °F 43% 30.21 in 10.0 mi Calm Calm - N/A   Clear
10:55 PM 58.3 °F 32.7 °F 38% 30.22 in 10.0 mi Calm Calm - N/A   Clear
11:15 PM 55.6 °F 34.2 °F 44% 30.21 in 10.0 mi Calm Calm - N/A   Clear
11:35 PM 55.0 °F 34.3 °F 46% 30.21 in 10.0 mi Calm Calm - N/A   Clear
11:55 PM 54.5 °F 35.1 °F 48% 30.21 in 10.0 mi Calm Calm - N/A   Clear